Regional Weather Roundup
Issued by NWS Little Rock, AR

Home | Current Version | Previous Version | Text Only | Print | Product List | Glossary Off
Versions: 1 2 3 4 5 6 7 8 9 10 11 12 13 14 15 16 17 18 19 20 21 22 23 24 25 26 27 28 29 30 31 32 33 34 35 36 37 38 39 40 41 42 43 44 45 46 47 48 49 50

000
ASUS44 KLZK 170005
RWRLZK

WEATHER ROUNDUP FOR ARKANSAS
NATIONAL WEATHER SERVICE LITTLE ROCK AR
700 PM CDT TUE SEP 16 2014

NOTE: "FAIR" INDICATES FEW OR NO CLOUDS BELOW 12,000 FEET WITH NO
SIGNIFICANT WEATHER AND/OR OBSTRUCTIONS TO VISIBILITY.

ARZ001-003-010-029-170100-
NORTHWEST ARKANSAS

CITY           SKY/WX    TMP DP  RH WIND       PRES   REMARKS
FAYETTEVILLE   CLOUDY    73  69  87 CALM      30.07S
6HR MIN TEMP:  73; 6HR MAX TEMP:  78;

FORT SMITH     CLEAR     82  69  64 N6        30.01S HX  85
6HR MIN TEMP:  81; 6HR MAX TEMP:  86;

HARRISON       CLOUDY    66  64  93 SE6       30.09F
6HR MIN TEMP:  66; 6HR MAX TEMP:  68;

BENTONVILLE    MOCLDY    73  66  78 E5        30.07F
6HR MIN TEMP:  70; 6HR MAX TEMP:  75;

ROGERS         CLOUDY    72  65  78 E6        30.08S
6HR MIN TEMP:  69; 6HR MAX TEMP:  75;

SILOAM SPGS    CLOUDY    73  64  73 SE3       30.07F
6HR MIN TEMP:  73; 6HR MAX TEMP:  75;

HIGHFILL       CLOUDY    74  67  78 CALM      30.06F
6HR MIN TEMP:  72; 6HR MAX TEMP:  76;

SPRINGDALE     CLOUDY    73  68  83 NE8       30.09F
$$

ARZ004-005-016-170100-
NORTH CENTRAL ARKANSAS

CITY           SKY/WX    TMP DP  RH WIND       PRES   REMARKS
BATESVILLE     MOCLDY    70  61  73 NE5       30.07S
6HR MIN TEMP:  70; 6HR MAX TEMP:  75;

FLIPPIN        CLOUDY    66  59  77 CALM      30.08F
6HR MIN TEMP:  66; 6HR MAX TEMP:  68;

MTN HOME       CLOUDY    67  62  84 SE3       30.07F
6HR MIN TEMP:  66; 6HR MAX TEMP:  69; 6HR PCP: TRACE;

$$

ARZ040-041-170100-
WEST CENTRAL ARKANSAS

CITY           SKY/WX    TMP DP  RH WIND       PRES   REMARKS
MENA           PTCLDY    81  73  78 CALM      30.03S HX  85
MOUNT IDA      CLEAR     80  71  74 CALM      30.01S
6HR MIN TEMP:  80; 6HR MAX TEMP:  89;

$$

ARZ009-017-025-026-028-170100-
NORTHEAST ARKANSAS

CITY           SKY/WX    TMP DP  RH WIND       PRES   REMARKS
CORNING          N/A     68  61  77 CALM      30.08F
JONESBORO      CLOUDY    69  60  73 NE8       30.07F
6HR MIN TEMP:  69; 6HR MAX TEMP:  76;

NEWPORT        MOCLDY    69  62  78 N8        30.06F
6HR MIN TEMP:  69; 6HR MAX TEMP:  78;

WALNUT RIDGE   CLOUDY    66  57  72 N3        30.07F
6HR MIN TEMP:  66; 6HR MAX TEMP:  70;

BLYTHEVILLE    CLOUDY    69  60  73 N7        30.07F
6HR MIN TEMP:  69; 6HR MAX TEMP:  77;

$$

ARZ022-023-033-042-044-170100-
CENTRAL ARKANSAS

CITY           SKY/WX    TMP DP  RH WIND       PRES   REMARKS
LITTLE ROCK    CLOUDY    75  66  73 E8        30.03F
6HR MIN TEMP:  74; 6HR MAX TEMP:  82;

N LITTLE ROCK  MOCLDY    72  70  93 NE7       30.03F
6HR MIN TEMP:  71; 6HR MAX TEMP:  82;

JACKSONVILLE   CLOUDY    73  67  81 E2        30.04F
6HR MIN TEMP:  73; 6HR MAX TEMP:  79;

SEARCY         MOCLDY    73  65  76 NE9       30.05F
6HR MIN TEMP:  72; 6HR MAX TEMP:  75;

HOT SPRINGS    MOCLDY    80  73  79 E5        30.03S THUNDER
6HR MIN TEMP:  80; 6HR MAX TEMP:  88;

RUSSELLVILLE     N/A    N/A N/A N/A MISG      30.04F
CLINTON        CLOUDY    72  70  94 CALM      30.06F
$$

ARZ036-170100-
EAST ARKANSAS

CITY           SKY/WX    TMP DP  RH WIND       PRES   REMARKS
WEST MEMPHIS   PTCLDY    73  65  75 N8        30.03S
6HR MIN TEMP:  73; 6HR MAX TEMP:  78;

$$

ARZ050-053-066-070-073-170100-
SOUTHWEST ARKANSAS

CITY           SKY/WX    TMP DP  RH WIND       PRES   REMARKS
ARKADELPHIA    FAIR      83  72  69 CALM      30.00S HX  88
6HR MIN TEMP:  83; 6HR MAX TEMP:  89;

CAMDEN         CLEAR     82  68  61 CALM      29.99S HX  85
TEXARKANA      CLEAR     83  71  67 CALM      29.99S HX  87
6HR MIN TEMP:  82; 6HR MAX TEMP:  88;

EL DORADO      CLEAR     81  72  74 N3        30.01R HX  85
6HR MIN TEMP:  81; 6HR MAX TEMP:  87; 6HR PCP: TRACE;

DE QUEEN       CLEAR     84  71  65 CALM      29.97F HX  89
6HR MIN TEMP:  84; 6HR MAX TEMP:  88;

$$

ARZ056-057-069-170100-
SOUTHEAST ARKANSAS

CITY           SKY/WX    TMP DP  RH WIND       PRES   REMARKS
PINE BLUFF     PTCLDY    77  68  73 N12       30.02S
6HR MIN TEMP:  77; 6HR MAX TEMP:  87;

STUTTGART      MOCLDY    72  66  83 N7        30.03F
6HR MIN TEMP:  72; 6HR MAX TEMP:  79;

MONTICELLO     CLEAR     84  69  60 CALM      30.00R HX  88
6HR MIN TEMP:  83; 6HR MAX TEMP:  89;


$$




USA.gov is the U.S. government's official web portal to all federal, state and local government web resources and services.